Time,TemperatureF,DewpointF,PressureIn,WindDirection,WindDirectionDegrees,WindSpeedMPH,WindSpeedGustMPH,Humidity,HourlyPrecipIn,Conditions,Clouds,dailyrainin,SoftwareType,DateUTC
2013-03-25 00:00:00,31.3,7.4,30.27,East,96,6.0,14.0,36,0.00,CLR,CLR,0.00,WeatherDisplay:10.37,2013-03-25 00:00:00,
2013-03-25 00:10:00,31.3,6.8,30.27,East,94,9.0,15.0,35,0.00,CLR,CLR,0.00,WeatherDisplay:10.37,2013-03-25 00:10:00,
2013-03-25 00:20:00,31.3,6.1,30.27,East,89,9.0,14.0,34,0.00,CLR,CLR,0.00,WeatherDisplay:10.37,2013-03-25 00:20:00,
2013-03-25 00:30:00,31.3,6.1,30.27,East,92,6.0,13.0,34,0.00,CLR,CLR,0.00,WeatherDisplay:10.37,2013-03-25 00:30:00,
2013-03-25 00:40:00,31.3,6.8,30.27,East,85,7.0,12.0,35,0.00,CLR,CLR,0.00,WeatherDisplay:10.37,2013-03-25 00:40:00,
2013-03-25 00:50:00,31.1,6.6,30.27,East,101,7.0,12.0,35,0.00,CLR,CLR,0.00,WeatherDisplay:10.37,2013-03-25 00:50:00,
2013-03-25 01:00:00,31.1,6.6,30.27,East,85,7.0,12.0,35,0.00,CLR,CLR,0.00,WeatherDisplay:10.37,2013-03-25 01:00:00,
2013-03-25 01:10:00,31.1,6.6,30.27,East,87,8.0,14.0,35,0.00,CLR,CLR,0.00,WeatherDisplay:10.37,2013-03-25 01:10:00,
2013-03-25 01:20:00,31.1,6.6,30.27,East,101,8.0,13.0,35,0.00,CLR,CLR,0.00,WeatherDisplay:10.37,2013-03-25 01:20:00,
2013-03-25 01:30:00,31.1,6.6,30.27,East,92,10.0,13.0,35,0.00,CLR,CLR,0.00,WeatherDisplay:10.37,2013-03-25 01:30:00,
2013-03-25 01:40:00,31.1,7.2,30.27,East,88,7.0,13.0,36,0.00,CLR,CLR,0.00,WeatherDisplay:10.37,2013-03-25 01:40:00,
2013-03-25 01:50:00,31.1,7.2,30.27,ESE,108,6.0,6.0,36,0.00,CLR,CLR,0.00,WeatherDisplay:10.37,2013-03-25 01:50:00,
2013-03-25 02:00:00,31.1,7.2,30.27,East,88,7.0,13.0,36,0.00,CLR,CLR,0.00,WeatherDisplay:10.37,2013-03-25 02:00:00,
2013-03-25 02:05:00,31.1,7.2,30.27,East,86,7.0,9.0,36,0.00,CLR,CLR,0.00,WeatherDisplay:10.37,2013-03-25 02:05:00,
2013-03-25 02:10:00,31.1,7.2,30.27,East,93,8.0,12.0,36,0.00,CLR,CLR,0.00,WeatherDisplay:10.37,2013-03-25 02:10:00,
2013-03-25 02:20:00,30.9,7.7,30.27,East,92,8.0,9.0,37,0.00,CLR,CLR,0.00,WeatherDisplay:10.37,2013-03-25 02:20:00,
2013-03-25 02:30:00,31.0,7.7,30.27,East,91,5.0,15.0,37,0.00,CLR,CLR,0.00,WeatherDisplay:10.37,2013-03-25 02:30:00,
2013-03-25 02:40:00,31.1,7.8,30.27,East,92,8.0,11.0,37,0.00,CLR,CLR,0.00,WeatherDisplay:10.37,2013-03-25 02:40:00,
2013-03-25 02:50:00,31.1,7.8,30.27,East,97,6.0,9.0,37,0.00,CLR,CLR,0.00,WeatherDisplay:10.37,2013-03-25 02:50:00,
2013-03-25 03:00:00,31.1,7.8,30.27,East,88,6.0,13.0,37,0.00,CLR,CLR,0.00,WeatherDisplay:10.37,2013-03-25 03:00:00,
2013-03-25 03:05:00,31.1,7.8,30.27,East,93,5.0,9.0,37,0.00,CLR,CLR,0.00,WeatherDisplay:10.37,2013-03-25 03:05:00,
2013-03-25 03:10:00,31.1,7.8,30.27,East,95,5.0,11.0,37,0.00,CLR,CLR,0.00,WeatherDisplay:10.37,2013-03-25 03:10:00,
2013-03-25 03:20:00,30.9,7.1,30.27,ESE,102,5.0,9.0,36,0.00,CLR,CLR,0.00,WeatherDisplay:10.37,2013-03-25 03:20:00,
2013-03-25 03:30:00,30.9,7.1,30.27,East,90,5.0,8.0,36,0.00,CLR,CLR,0.00,WeatherDisplay:10.37,2013-03-25 03:30:00,
2013-03-25 03:40:00,31.1,6.6,30.27,East,81,5.0,8.0,35,0.00,CLR,CLR,0.00,WeatherDisplay:10.37,2013-03-25 03:40:00,
2013-03-25 03:50:00,31.1,6.0,30.27,East,92,7.0,8.0,34,0.00,CLR,CLR,0.00,WeatherDisplay:10.37,2013-03-25 03:50:00,
2013-03-25 04:00:00,31.5,6.3,30.27,East,91,7.0,13.0,34,0.00,CLR,CLR,0.00,WeatherDisplay:10.37,2013-03-25 04:00:00,
2013-03-25 04:05:00,31.5,5.6,30.27,East,93,8.0,16.0,33,0.00,CLR,CLR,0.00,WeatherDisplay:10.37,2013-03-25 04:05:00,
2013-03-25 04:10:00,31.6,5.8,30.27,East,94,6.0,10.0,33,0.00,CLR,CLR,0.00,WeatherDisplay:10.37,2013-03-25 04:10:00,
2013-03-25 04:15:00,31.6,5.8,30.27,East,95,7.0,10.0,33,0.00,CLR,CLR,0.00,WeatherDisplay:10.37,2013-03-25 04:15:00,
2013-03-25 04:20:00,31.6,5.8,30.27,East,94,8.0,15.0,33,0.00,CLR,CLR,0.00,WeatherDisplay:10.37,2013-03-25 04:20:00,
2013-03-25 04:30:00,31.6,5.8,30.27,East,93,7.0,12.0,33,0.00,CLR,CLR,0.00,WeatherDisplay:10.37,2013-03-25 04:30:00,
2013-03-25 04:40:00,31.6,5.8,30.27,East,92,8.0,15.0,33,0.00,CLR,CLR,0.00,WeatherDisplay:10.37,2013-03-25 04:40:00,
2013-03-25 04:50:00,31.8,5.9,30.27,East,88,7.0,12.0,33,0.00,CLR,CLR,0.00,WeatherDisplay:10.37,2013-03-25 04:50:00,
2013-03-25 05:00:00,31.6,6.4,30.27,East,94,8.0,11.0,34,0.00,CLR,CLR,0.00,WeatherDisplay:10.37,2013-03-25 05:00:00,
2013-03-25 05:10:00,31.6,5.8,30.27,East,90,9.0,15.0,33,0.00,CLR,CLR,0.00,WeatherDisplay:10.37,2013-03-25 05:10:00,
2013-03-25 05:20:00,31.8,5.9,30.27,East,88,5.0,9.0,33,0.00,CLR,CLR,0.00,WeatherDisplay:10.37,2013-03-25 05:20:00,
2013-03-25 05:30:00,31.8,5.9,30.27,East,89,8.0,12.0,33,0.00,CLR,CLR,0.00,WeatherDisplay:10.37,2013-03-25 05:30:00,
2013-03-25 05:40:00,31.8,5.9,30.27,East,94,9.0,13.0,33,0.00,CLR,CLR,0.00,WeatherDisplay:10.37,2013-03-25 05:40:00,
2013-03-25 05:50:00,31.8,6.6,30.27,East,98,9.0,13.0,34,0.00,CLR,CLR,0.00,WeatherDisplay:10.37,2013-03-25 05:50:00,
2013-03-25 06:00:00,31.6,6.4,30.27,East,79,8.0,13.0,34,0.00,CLR,CLR,0.00,WeatherDisplay:10.37,2013-03-25 06:00:00,
2013-03-25 06:05:00,31.8,6.6,30.27,East,82,6.0,15.0,34,0.00,CLR,CLR,0.00,WeatherDisplay:10.37,2013-03-25 06:05:00,
2013-03-25 06:10:00,31.8,6.6,30.27,East,93,8.0,13.0,34,0.00,CLR,CLR,0.00,WeatherDisplay:10.37,2013-03-25 06:10:00,
2013-03-25 06:20:00,31.6,8.3,30.27,ESE,103,7.0,11.0,37,0.00,CLR,CLR,0.00,WeatherDisplay:10.37,2013-03-25 06:20:00,
2013-03-25 06:30:00,31.5,9.9,30.27,East,80,10.0,15.0,40,0.00,CLR,CLR,0.00,WeatherDisplay:10.37,2013-03-25 06:30:00,
2013-03-25 06:40:00,31.3,10.3,30.27,NE,56,5.0,12.0,41,0.00,CLR,CLR,0.00,WeatherDisplay:10.37,2013-03-25 06:40:00,
2013-03-25 06:50:00,31.3,10.8,30.27,East,85,6.0,8.0,42,0.00,CLR,CLR,0.00,WeatherDisplay:10.37,2013-03-25 06:50:00,
2013-03-25 07:00:00,31.5,10.4,30.27,ENE,78,7.0,12.0,41,0.00,CLR,CLR,0.00,WeatherDisplay:10.37,2013-03-25 07:00:00,
2013-03-25 07:10:00,31.6,10.0,30.27,East,92,7.0,13.0,40,0.00,CLR,CLR,0.00,WeatherDisplay:10.37,2013-03-25 07:10:00,
2013-03-25 07:15:00,31.8,10.2,30.27,East,90,8.0,14.0,40,0.00,CLR,CLR,0.00,WeatherDisplay:10.37,2013-03-25 07:15:00,
2013-03-25 07:20:00,32.0,10.4,30.27,East,86,8.0,15.0,40,0.00,CLR,CLR,0.00,WeatherDisplay:10.37,2013-03-25 07:20:00,
2013-03-25 07:30:00,32.0,9.8,30.27,East,96,7.0,13.0,39,0.00,CLR,CLR,0.00,WeatherDisplay:10.37,2013-03-25 07:30:00,
2013-03-25 07:40:00,32.2,10.5,30.27,East,93,9.0,15.0,40,0.00,CLR,CLR,0.00,WeatherDisplay:10.37,2013-03-25 07:40:00,
2013-03-25 07:50:00,32.2,10.0,30.27,East,92,10.0,15.0,39,0.00,CLR,CLR,0.00,WeatherDisplay:10.37,2013-03-25 07:50:00,
2013-03-25 08:00:00,32.0,10.4,30.27,East,93,7.0,10.0,40,0.00,CLR,CLR,0.00,WeatherDisplay:10.37,2013-03-25 08:00:00,
2013-03-25 08:10:00,32.2,10.5,30.27,East,86,6.0,13.0,40,0.00,CLR,CLR,0.00,WeatherDisplay:10.37,2013-03-25 08:10:00,
2013-03-25 08:20:00,32.4,10.7,30.27,East,86,9.0,13.0,40,0.00,CLR,CLR,0.00,WeatherDisplay:10.37,2013-03-25 08:20:00,
2013-03-25 08:30:00,32.2,10.5,30.27,East,100,9.0,13.0,40,0.00,CLR,CLR,0.00,WeatherDisplay:10.37,2013-03-25 08:30:00,
2013-03-25 08:40:00,32.2,10.5,30.27,East,87,8.0,12.0,40,0.00,CLR,CLR,0.00,WeatherDisplay:10.37,2013-03-25 08:40:00,
2013-03-25 08:50:00,32.4,10.7,30.29,East,97,7.0,11.0,40,0.00,CLR,CLR,0.00,WeatherDisplay:10.37,2013-03-25 08:50:00,
2013-03-25 09:00:00,32.4,9.5,30.30,East,94,7.0,13.0,38,0.00,CLR,CLR,0.00,WeatherDisplay:10.37,2013-03-25 09:00:00,
2013-03-25 09:10:00,32.4,7.7,30.30,East,93,6.0,12.0,35,0.00,CLR,CLR,0.00,WeatherDisplay:10.37,2013-03-25 09:10:00,
2013-03-25 09:20:00,32.4,7.7,30.30,East,83,8.0,12.0,35,0.00,CLR,CLR,0.00,WeatherDisplay:10.37,2013-03-25 09:20:00,
2013-03-25 09:30:00,32.5,7.9,30.30,East,79,5.0,9.0,35,0.00,CLR,CLR,0.00,WeatherDisplay:10.37,2013-03-25 09:30:00,
2013-03-25 09:40:00,32.5,7.9,30.30,East,86,6.0,13.0,35,0.00,CLR,CLR,0.00,WeatherDisplay:10.37,2013-03-25 09:40:00,
2013-03-25 09:50:00,32.7,8.0,30.30,ESE,102,7.0,11.0,35,0.00,CLR,CLR,0.00,WeatherDisplay:10.37,2013-03-25 09:50:00,
2013-03-25 10:00:00,32.7,8.0,30.30,East,89,8.0,12.0,35,0.00,CLR,CLR,0.00,WeatherDisplay:10.37,2013-03-25 10:00:00,
2013-03-25 10:05:00,32.7,7.4,30.30,East,96,7.0,12.0,34,0.00,CLR,CLR,0.00,WeatherDisplay:10.37,2013-03-25 10:05:00,
2013-03-25 10:10:00,32.7,7.4,30.30,East,94,9.0,13.0,34,0.00,CLR,CLR,0.00,WeatherDisplay:10.37,2013-03-25 10:10:00,
2013-03-25 10:15:00,32.9,6.9,30.30,East,91,6.0,11.0,33,0.00,CLR,CLR,0.00,WeatherDisplay:10.37,2013-03-25 10:15:00,
2013-03-25 10:20:00,33.1,7.1,30.30,East,93,7.0,12.0,33,0.00,CLR,CLR,0.00,WeatherDisplay:10.37,2013-03-25 10:20:00,
2013-03-25 10:30:00,33.3,6.5,30.30,East,88,6.0,9.0,32,0.00,CLR,CLR,0.00,WeatherDisplay:10.37,2013-03-25 10:30:00,
2013-03-25 10:40:00,33.3,5.8,30.30,East,88,9.0,15.0,31,0.00,CLR,CLR,0.00,WeatherDisplay:10.37,2013-03-25 10:40:00,
2013-03-25 10:50:00,33.3,6.5,30.30,East,96,10.0,13.0,32,0.00,CLR,CLR,0.00,WeatherDisplay:10.37,2013-03-25 10:50:00,
2013-03-25 11:00:00,33.4,6.7,30.30,East,89,6.0,12.0,32,0.00,CLR,CLR,0.00,WeatherDisplay:10.37,2013-03-25 11:00:00,
2013-03-25 11:05:00,33.4,6.7,30.30,ENE,74,7.0,12.0,32,0.00,CLR,CLR,0.00,WeatherDisplay:10.37,2013-03-25 11:05:00,
2013-03-25 11:10:00,33.4,7.4,30.30,ENE,66,8.0,13.0,33,0.00,CLR,CLR,0.00,WeatherDisplay:10.37,2013-03-25 11:10:00,
2013-03-25 11:20:00,33.6,7.5,30.30,East,80,7.0,13.0,33,0.00,CLR,CLR,0.00,WeatherDisplay:10.37,2013-03-25 11:20:00,
2013-03-25 11:30:00,33.4,7.4,30.30,East,86,10.0,17.0,33,0.00,CLR,CLR,0.00,WeatherDisplay:10.37,2013-03-25 11:30:00,
2013-03-25 11:40:00,33.4,7.4,30.30,East,97,9.0,15.0,33,0.00,CLR,CLR,0.00,WeatherDisplay:10.37,2013-03-25 11:40:00,
2013-03-25 11:50:00,33.8,7.7,30.30,East,89,9.0,13.0,33,0.00,CLR,CLR,0.00,WeatherDisplay:10.37,2013-03-25 11:50:00,
2013-03-25 12:00:00,34.2,7.3,30.30,East,90,8.0,15.0,32,0.00,CLR,CLR,0.00,WeatherDisplay:10.37,2013-03-25 12:00:00,
2013-03-25 12:05:00,34.2,6.6,30.30,East,91,12.0,15.0,31,0.00,CLR,CLR,0.00,WeatherDisplay:10.37,2013-03-25 12:05:00,
2013-03-25 12:10:00,34.2,7.3,30.30,East,86,7.0,13.0,32,0.00,CLR,CLR,0.00,WeatherDisplay:10.37,2013-03-25 12:10:00,
2013-03-25 12:20:00,34.2,6.6,30.30,East,91,8.0,12.0,31,0.00,CLR,CLR,0.00,WeatherDisplay:10.37,2013-03-25 12:20:00,
2013-03-25 12:30:00,33.8,7.0,30.30,East,94,7.0,13.0,32,0.00,CLR,CLR,0.00,WeatherDisplay:10.37,2013-03-25 12:30:00,
2013-03-25 12:40:00,34.2,8.0,30.30,East,93,7.0,12.0,33,0.00,CLR,CLR,0.00,WeatherDisplay:10.37,2013-03-25 12:40:00,
2013-03-25 12:45:00,34.3,8.2,30.30,East,82,6.0,13.0,33,0.00,CLR,CLR,0.00,WeatherDisplay:10.37,2013-03-25 12:45:00,
2013-03-25 12:55:00,34.1,8.0,30.30,East,90,5.0,12.0,33,0.00,CLR,CLR,0.00,WeatherDisplay:10.37,2013-03-25 12:55:00,
2013-03-25 13:00:00,34.0,7.2,30.30,East,96,7.0,11.0,32,0.00,CLR,CLR,0.00,WeatherDisplay:10.37,2013-03-25 13:00:00,
2013-03-25 13:10:00,33.8,7.7,30.30,ENE,78,7.0,10.0,33,0.00,CLR,CLR,0.00,WeatherDisplay:10.37,2013-03-25 13:10:00,
2013-03-25 13:20:00,34.3,8.2,30.30,East,91,8.0,12.0,33,0.00,CLR,CLR,0.00,WeatherDisplay:10.37,2013-03-25 13:20:00,
2013-03-25 13:30:00,34.7,7.1,30.30,East,90,9.0,14.0,31,0.00,CLR,CLR,0.00,WeatherDisplay:10.37,2013-03-25 13:30:00,
2013-03-25 13:40:00,35.1,7.4,30.30,East,100,6.0,12.0,31,0.00,CLR,CLR,0.00,WeatherDisplay:10.37,2013-03-25 13:40:00,
2013-03-25 13:50:00,35.2,7.6,30.28,ENE,69,7.0,12.0,31,0.00,CLR,CLR,0.00,WeatherDisplay:10.37,2013-03-25 13:50:00,
2013-03-25 14:00:00,34.9,7.3,30.27,ENE,66,7.0,13.0,31,0.00,CLR,CLR,0.00,WeatherDisplay:10.37,2013-03-25 14:00:00,
2013-03-25 14:05:00,34.5,6.9,30.27,ENE,77,7.0,13.0,31,0.00,CLR,CLR,0.00,WeatherDisplay:10.37,2013-03-25 14:05:00,
2013-03-25 14:10:00,34.3,6.8,30.27,ENE,63,5.0,13.0,31,0.00,CLR,CLR,0.00,WeatherDisplay:10.37,2013-03-25 14:10:00,
2013-03-25 14:20:00,34.7,7.8,30.27,East,84,7.0,11.0,32,0.00,CLR,CLR,0.00,WeatherDisplay:10.37,2013-03-25 14:20:00,
2013-03-25 14:30:00,35.1,7.4,30.27,East,79,6.0,11.0,31,0.00,CLR,CLR,0.00,WeatherDisplay:10.37,2013-03-25 14:30:00,
2013-03-25 14:40:00,34.5,6.9,30.27,ENE,66,6.0,12.0,31,0.00,CLR,CLR,0.00,WeatherDisplay:10.37,2013-03-25 14:40:00,
2013-03-25 14:50:00,34.5,6.9,30.27,ENE,69,8.0,11.0,31,0.00,CLR,CLR,0.00,WeatherDisplay:10.37,2013-03-25 14:50:00,
2013-03-25 15:00:00,34.5,6.9,30.27,ENE,61,8.0,12.0,31,0.00,CLR,CLR,0.00,WeatherDisplay:10.37,2013-03-25 15:00:00,
2013-03-25 15:05:00,34.5,6.9,30.27,ENE,57,6.0,8.0,31,0.00,CLR,CLR,0.00,WeatherDisplay:10.37,2013-03-25 15:05:00,
2013-03-25 15:10:00,34.7,7.1,30.27,ENE,67,7.0,9.0,31,0.00,CLR,CLR,0.00,WeatherDisplay:10.37,2013-03-25 15:10:00,
2013-03-25 15:20:00,34.7,7.1,30.27,ESE,103,5.0,12.0,31,0.00,CLR,CLR,0.00,WeatherDisplay:10.37,2013-03-25 15:20:00,
2013-03-25 15:25:00,34.7,7.1,30.27,East,91,8.0,12.0,31,0.00,CLR,CLR,0.00,WeatherDisplay:10.37,2013-03-25 15:25:00,
2013-03-25 15:30:00,34.3,6.8,30.27,East,88,8.0,12.0,31,0.00,CLR,CLR,0.00,WeatherDisplay:10.37,2013-03-25 15:30:00,
2013-03-25 15:40:00,34.3,6.8,30.27,East,95,8.0,13.0,31,0.00,CLR,CLR,0.00,WeatherDisplay:10.37,2013-03-25 15:40:00,
2013-03-25 15:50:00,33.9,6.4,30.27,ESE,104,10.0,15.0,31,0.00,CLR,CLR,0.00,WeatherDisplay:10.37,2013-03-25 15:50:00,
2013-03-25 16:00:00,33.6,7.5,30.27,East,82,8.0,11.0,33,0.00,CLR,CLR,0.00,WeatherDisplay:10.37,2013-03-25 16:00:00,
2013-03-25 16:10:00,33.1,9.0,30.27,East,87,7.0,13.0,36,0.00,CLR,CLR,0.00,WeatherDisplay:10.37,2013-03-25 16:10:00,
2013-03-25 16:20:00,32.9,10.6,30.27,East,81,6.0,12.0,39,0.00,CLR,CLR,0.00,WeatherDisplay:10.37,2013-03-25 16:20:00,
2013-03-25 16:30:00,32.7,10.4,30.27,East,92,9.0,13.0,39,0.00,CLR,CLR,0.00,WeatherDisplay:10.37,2013-03-25 16:30:00,
2013-03-25 16:40:00,32.9,10.0,30.24,East,89,7.0,11.0,38,0.00,CLR,CLR,0.00,WeatherDisplay:10.37,2013-03-25 16:40:00,
2013-03-25 16:50:00,33.1,10.2,30.24,East,93,3.0,10.0,38,0.00,CLR,CLR,0.00,WeatherDisplay:10.37,2013-03-25 16:50:00,
2013-03-25 17:00:00,33.1,8.4,30.24,East,85,6.0,12.0,35,0.00,CLR,CLR,0.00,WeatherDisplay:10.37,2013-03-25 17:00:00,
2013-03-25 17:10:00,33.3,7.9,30.24,East,84,6.0,13.0,34,0.00,CLR,CLR,0.00,WeatherDisplay:10.37,2013-03-25 17:10:00,
2013-03-25 17:20:00,33.1,7.7,30.24,East,89,6.0,15.0,34,0.00,CLR,CLR,0.00,WeatherDisplay:10.37,2013-03-25 17:20:00,
2013-03-25 17:30:00,32.9,7.6,30.24,East,98,9.0,13.0,34,0.00,CLR,CLR,0.00,WeatherDisplay:10.37,2013-03-25 17:30:00,
2013-03-25 17:40:00,32.7,7.4,30.24,East,89,6.0,13.0,34,0.00,CLR,CLR,0.00,WeatherDisplay:10.37,2013-03-25 17:40:00,
2013-03-25 17:50:00,32.7,6.7,30.24,East,89,8.0,12.0,33,0.00,CLR,CLR,0.00,WeatherDisplay:10.37,2013-03-25 17:50:00,
2013-03-25 18:00:00,32.7,6.7,30.24,East,97,7.0,9.0,33,0.00,CLR,CLR,0.00,WeatherDisplay:10.37,2013-03-25 18:00:00,
2013-03-25 18:05:00,32.7,6.1,30.24,East,94,5.0,13.0,32,0.00,CLR,CLR,0.00,WeatherDisplay:10.37,2013-03-25 18:05:00,
2013-03-25 18:10:00,32.5,5.2,30.24,East,94,9.0,12.0,31,0.00,CLR,CLR,0.00,WeatherDisplay:10.37,2013-03-25 18:10:00,
2013-03-25 18:15:00,32.5,5.2,30.24,East,99,6.0,15.0,31,0.00,CLR,CLR,0.00,WeatherDisplay:10.37,2013-03-25 18:15:00,
2013-03-25 18:20:00,32.5,5.2,30.24,East,101,6.0,11.0,31,0.00,CLR,CLR,0.00,WeatherDisplay:10.37,2013-03-25 18:20:00,
2013-03-25 18:30:00,32.5,5.2,30.24,East,93,5.0,11.0,31,0.00,CLR,CLR,0.00,WeatherDisplay:10.37,2013-03-25 18:30:00,
2013-03-25 18:40:00,32.4,5.0,30.24,ENE,65,7.0,11.0,31,0.00,CLR,CLR,0.00,WeatherDisplay:10.37,2013-03-25 18:40:00,
2013-03-25 18:50:00,32.5,5.9,30.24,ENE,72,9.0,12.0,32,0.00,CLR,CLR,0.00,WeatherDisplay:10.37,2013-03-25 18:50:00,
2013-03-25 19:00:00,32.5,7.2,30.24,ENE,75,7.0,13.0,34,0.00,CLR,CLR,0.00,WeatherDisplay:10.37,2013-03-25 19:00:00,
2013-03-25 19:05:00,32.4,7.1,30.24,East,86,9.0,13.0,34,0.00,CLR,CLR,0.00,WeatherDisplay:10.37,2013-03-25 19:05:00,
2013-03-25 19:10:00,32.4,7.1,30.24,East,88,9.0,13.0,34,0.00,CLR,CLR,0.00,WeatherDisplay:10.37,2013-03-25 19:10:00,
2013-03-25 19:20:00,32.2,7.6,30.24,East,97,8.0,12.0,35,0.00,CLR,CLR,0.00,WeatherDisplay:10.37,2013-03-25 19:20:00,
2013-03-25 19:30:00,32.2,8.2,30.24,East,96,7.0,10.0,36,0.00,CLR,CLR,0.00,WeatherDisplay:10.37,2013-03-25 19:30:00,
2013-03-25 19:40:00,32.0,8.0,30.24,East,99,5.0,10.0,36,0.00,CLR,CLR,0.00,WeatherDisplay:10.37,2013-03-25 19:40:00,
2013-03-25 19:50:00,32.0,8.6,30.24,East,100,7.0,9.0,37,0.00,CLR,CLR,0.00,WeatherDisplay:10.37,2013-03-25 19:50:00,
2013-03-25 20:00:00,32.0,8.0,30.24,ESE,102,8.0,11.0,36,0.00,CLR,CLR,0.00,WeatherDisplay:10.37,2013-03-25 20:00:00,
2013-03-25 20:05:00,32.0,6.8,30.24,East,89,8.0,13.0,34,0.00,CLR,CLR,0.00,WeatherDisplay:10.37,2013-03-25 20:05:00,
2013-03-25 20:15:00,32.0,6.1,30.24,East,95,8.0,14.0,33,0.00,CLR,CLR,0.00,WeatherDisplay:10.37,2013-03-25 20:15:00,
2013-03-25 20:20:00,32.0,6.8,30.24,East,96,8.0,14.0,34,0.00,CLR,CLR,0.00,WeatherDisplay:10.37,2013-03-25 20:20:00,
2013-03-25 20:28:00,32.0,6.7,30.24,East,91,9.0,13.0,34,0.00,CLR,CLR,0.00,WeatherDisplay:10.37,2013-03-25 20:28:00,
2013-03-25 20:36:00,31.8,6.6,30.24,East,85,8.0,12.0,34,0.00,CLR,CLR,0.00,WeatherDisplay:10.37,2013-03-25 20:36:00,
2013-03-25 20:47:00,31.6,6.4,30.24,East,87,6.0,13.0,34,0.00,CLR,CLR,0.00,WeatherDisplay:10.37,2013-03-25 20:47:00,
2013-03-25 20:55:00,31.6,5.1,30.24,East,81,8.0,13.0,32,0.00,CLR,CLR,0.00,WeatherDisplay:10.37,2013-03-25 20:55:00,
2013-03-25 21:00:00,31.6,4.4,30.24,East,86,8.0,12.0,31,0.00,CLR,CLR,0.00,WeatherDisplay:10.37,2013-03-25 21:00:00,
2013-03-25 21:05:00,31.6,4.4,30.24,East,80,5.0,12.0,31,0.00,CLR,CLR,0.00,WeatherDisplay:10.37,2013-03-25 21:05:00,
2013-03-25 21:10:00,31.6,4.4,30.24,ENE,72,5.0,10.0,31,0.00,CLR,CLR,0.00,WeatherDisplay:10.37,2013-03-25 21:10:00,
2013-03-25 21:20:00,31.5,4.9,30.24,East,82,6.0,8.0,32,0.00,CLR,CLR,0.00,WeatherDisplay:10.37,2013-03-25 21:20:00,
2013-03-25 21:30:00,31.6,5.1,30.24,East,84,6.0,7.0,32,0.00,CLR,CLR,0.00,WeatherDisplay:10.37,2013-03-25 21:30:00,
2013-03-25 21:40:00,31.6,5.8,30.24,East,83,6.0,11.0,33,0.00,CLR,CLR,0.00,WeatherDisplay:10.37,2013-03-25 21:40:00,
2013-03-25 21:50:00,31.5,6.3,30.24,East,95,7.0,13.0,34,0.00,CLR,CLR,0.00,WeatherDisplay:10.37,2013-03-25 21:50:00,
2013-03-25 22:00:00,31.5,7.5,30.24,East,84,5.0,13.0,36,0.00,CLR,CLR,0.00,WeatherDisplay:10.37,2013-03-25 22:00:00,
2013-03-25 22:05:00,31.3,6.8,30.24,East,89,6.0,15.0,35,0.00,CLR,CLR,0.00,WeatherDisplay:10.37,2013-03-25 22:05:00,
2013-03-25 22:10:00,31.3,6.1,30.24,East,93,8.0,12.0,34,0.00,CLR,CLR,0.00,WeatherDisplay:10.37,2013-03-25 22:10:00,
2013-03-25 22:20:00,31.3,5.5,30.24,East,89,1.0,10.0,33,0.00,CLR,CLR,0.00,WeatherDisplay:10.37,2013-03-25 22:20:00,
2013-03-25 22:30:00,31.3,5.5,30.24,East,83,6.0,8.0,33,0.00,CLR,CLR,0.00,WeatherDisplay:10.37,2013-03-25 22:30:00,
2013-03-25 22:40:00,31.3,4.8,30.24,East,86,5.0,8.0,32,0.00,CLR,CLR,0.00,WeatherDisplay:10.37,2013-03-25 22:40:00,
2013-03-25 22:50:00,31.3,4.8,30.24,East,87,3.0,8.0,32,0.00,CLR,CLR,0.00,WeatherDisplay:10.37,2013-03-25 22:50:00,
2013-03-25 23:00:00,31.3,4.8,30.24,East,90,6.0,11.0,32,0.00,CLR,CLR,0.00,WeatherDisplay:10.37,2013-03-25 23:00:00,
2013-03-25 23:05:00,31.3,5.5,30.24,East,95,5.0,6.0,33,0.00,CLR,CLR,0.00,WeatherDisplay:10.37,2013-03-25 23:05:00,
2013-03-25 23:10:00,31.1,5.3,30.24,East,96,6.0,8.0,33,0.00,CLR,CLR,0.00,WeatherDisplay:10.37,2013-03-25 23:10:00,
2013-03-25 23:20:00,31.1,5.3,30.24,East,95,5.0,8.0,33,0.00,CLR,CLR,0.00,WeatherDisplay:10.37,2013-03-25 23:20:00,
2013-03-25 23:30:00,31.3,5.5,30.24,East,98,5.0,9.0,33,0.00,CLR,CLR,0.00,WeatherDisplay:10.37,2013-03-25 23:30:00,
2013-03-25 23:40:00,31.3,5.5,30.24,East,90,3.0,8.0,33,0.00,CLR,CLR,0.00,WeatherDisplay:10.37,2013-03-25 23:40:00,
2013-03-25 23:50:00,31.3,5.5,30.24,East,95,6.0,12.0,33,0.00,CLR,CLR,0.00,WeatherDisplay:10.37,2013-03-25 23:50:00,